EDW346M LSZH-LGRP

Flight info

Callsign EDW346M
Flight time 2h 38m
Altitude 33000
Route DEGES Z2 TUNUM Z204 GEDSO DCT VEKEN/N0443F370 DCT RUDIK DCT MEDUX UM867 KOGAT DCT ERANA DCT TSL DCT MES UN139 LURUS UL995 CODIC CODIC2D
Aircraft A320/M-SDE2E3FGHIJ1LORVWXY/LB1

Departure

Time 2026-05-07 12:23
Airport Zürich Airport (LSZH)

Arrival

Time 2026-05-07 15:01
Airport Rhodes International Airport "Diagoras" (LGRP)
Time Latitude Longitude Altitude Speed Heading
2026-05-07 12:00 47.45342 8.55862 1407 ft 0 kts
2026-05-07 12:11 47.45337 8.55861 1407 ft 4 kts
2026-05-07 12:12 47.45312 8.55859 1409 ft 1 kts
2026-05-07 12:12 47.45289 8.55855 1413 ft 4 kts
2026-05-07 12:12 47.45263 8.55855 1409 ft 4 kts 334°
2026-05-07 12:12 47.45254 8.55875 1414 ft 4 kts 276°
2026-05-07 12:13 47.45253 8.55896 1409 ft 1 kts 276°
2026-05-07 12:16 47.45257 8.55834 1414 ft 11 kts 276°
2026-05-07 12:16 47.45266 8.55719 1406 ft 12 kts 276°
2026-05-07 12:16 47.45280 8.55594 1410 ft 13 kts 296°
2026-05-07 12:16 47.45357 8.55523 1409 ft 14 kts 335°
2026-05-07 12:17 47.45454 8.55455 1405 ft 17 kts 335°
2026-05-07 12:17 47.45569 8.55376 1402 ft 20 kts 334°
2026-05-07 12:17 47.45667 8.55379 1402 ft 15 kts 72°
2026-05-07 12:17 47.45664 8.55510 1402 ft 11 kts 96°
2026-05-07 12:18 47.45657 8.55606 1404 ft 8 kts 96°
2026-05-07 12:18 47.45653 8.55665 1405 ft 4 kts 95°
2026-05-07 12:18 47.45651 8.55693 1405 ft 1 kts 95°
2026-05-07 12:18 47.45650 8.55712 1405 ft 6 kts 96°
2026-05-07 12:19 47.45642 8.55816 1410 ft 11 kts 96°
2026-05-07 12:19 47.45635 8.55913 1409 ft 7 kts 96°
2026-05-07 12:19 47.45628 8.56005 1410 ft 11 kts 96°
2026-05-07 12:19 47.45618 8.56143 1417 ft 16 kts 96°
2026-05-07 12:20 47.45605 8.56324 1413 ft 20 kts 96°
2026-05-07 12:20 47.45591 8.56528 1418 ft 19 kts 96°
2026-05-07 12:20 47.45579 8.56708 1420 ft 16 kts 95°
2026-05-07 12:20 47.45570 8.56850 1420 ft 12 kts 95°
2026-05-07 12:21 47.45563 8.56960 1421 ft 10 kts 89°
2026-05-07 12:21 47.45588 8.57018 1423 ft 3 kts 33°
2026-05-07 12:21 47.45597 8.57020 1424 ft 1 kts 10°
2026-05-07 12:21 47.45649 8.57005 1425 ft 12 kts 328°
2026-05-07 12:22 47.45668 8.56934 1424 ft 0 kts 273°
2026-05-07 12:22 47.45668 8.56932 1424 ft 0 kts 273°
2026-05-07 12:22 47.45674 8.56826 1421 ft 34 kts 275°
2026-05-07 12:22 47.45727 8.56096 1412 ft 105 kts 276°
2026-05-07 12:23 47.45829 8.54730 1411 ft 157 kts 277°
2026-05-07 12:23 47.45931 8.53064 1892 ft 168 kts 277°
2026-05-07 12:23 47.46050 8.51313 2588 ft 174 kts 276°
2026-05-07 12:23 47.46190 8.49537 3310 ft 174 kts 277°
2026-05-07 12:24 47.46152 8.47799 3953 ft 169 kts 248°
2026-05-07 12:24 47.45526 8.46335 4514 ft 169 kts 240°
2026-05-07 12:24 47.44917 8.44793 4862 ft 183 kts 242°
2026-05-07 12:24 47.44280 8.43042 5078 ft 202 kts 244°
2026-05-07 12:25 47.43603 8.41127 5495 ft 216 kts 244°
2026-05-07 12:25 47.42903 8.39141 6104 ft 222 kts 241°
2026-05-07 12:25 47.41802 8.37412 6411 ft 249 kts 211°
2026-05-07 12:25 47.40062 8.36806 6856 ft 272 kts 175°
2026-05-07 12:26 47.38293 8.37853 7573 ft 283 kts 142°
2026-05-07 12:26 47.37159 8.40237 8386 ft 292 kts 109°
2026-05-07 12:26 47.36864 8.43221 9222 ft 299 kts 90°
2026-05-07 12:26 47.37012 8.46297 10095 ft 303 kts 83°
2026-05-07 12:27 47.37322 8.49388 10516 ft 320 kts 81°
2026-05-07 12:27 47.37688 8.52798 10793 ft 341 kts 82°
2026-05-07 12:27 47.38020 8.56308 11394 ft 348 kts 83°
2026-05-07 12:27 47.38296 8.59880 12109 ft 352 kts 85°
2026-05-07 12:28 47.38517 8.63452 12839 ft 356 kts 86°
2026-05-07 12:28 47.38710 8.67113 13552 ft 360 kts 86°
2026-05-07 12:28 47.38888 8.70861 14221 ft 363 kts 86°
2026-05-07 12:28 47.39057 8.74546 14851 ft 366 kts 86°
2026-05-07 12:29 47.39234 8.78312 15455 ft 370 kts 86°
2026-05-07 12:29 47.39393 8.82114 16051 ft 373 kts 88°
2026-05-07 12:29 47.39474 8.85954 16642 ft 376 kts 89°
2026-05-07 12:29 47.39502 8.89826 17229 ft 379 kts 90°
2026-05-07 12:30 47.39507 8.93736 17812 ft 382 kts 90°
2026-05-07 12:30 47.39511 8.97673 18389 ft 386 kts 89°
2026-05-07 12:30 47.39523 9.01649 18888 ft 389 kts 89°
2026-05-07 12:30 47.39545 9.05652 19414 ft 391 kts 89°
2026-05-07 12:31 47.39573 9.09680 19937 ft 394 kts 89°
2026-05-07 12:31 47.39603 9.13736 20461 ft 397 kts 89°
2026-05-07 12:31 47.39635 9.17819 20974 ft 400 kts 89°
2026-05-07 12:31 47.39667 9.21946 21420 ft 405 kts 89°
2026-05-07 12:32 47.39699 9.26117 21904 ft 408 kts 89°
2026-05-07 12:32 47.39733 9.30309 22433 ft 410 kts 89°
2026-05-07 12:32 47.39767 9.34534 22906 ft 414 kts 89°
2026-05-07 12:32 47.39800 9.38792 23448 ft 415 kts 89°
2026-05-07 12:33 47.39857 9.47371 24270 ft 421 kts 89°
2026-05-07 12:33 47.39880 9.51697 24715 ft 422 kts 89°
2026-05-07 12:33 47.39898 9.56037 25075 ft 425 kts 89°
2026-05-07 12:34 47.39918 9.60406 25461 ft 426 kts 89°
2026-05-07 12:34 47.39940 9.64779 25910 ft 426 kts 89°
2026-05-07 12:34 47.39961 9.69160 26299 ft 427 kts 89°
2026-05-07 12:34 47.39980 9.73552 26665 ft 429 kts 89°
2026-05-07 12:35 47.39995 9.77963 27032 ft 431 kts 89°
2026-05-07 12:35 47.40006 9.82391 27396 ft 432 kts 89°
2026-05-07 12:35 47.40015 9.86835 27744 ft 434 kts 89°
2026-05-07 12:35 47.40024 9.91298 28094 ft 436 kts 89°
2026-05-07 12:36 47.40034 9.95780 28440 ft 438 kts 89°
2026-05-07 12:36 47.40043 10.00279 28772 ft 439 kts 89°
2026-05-07 12:36 47.40052 10.04800 29070 ft 442 kts 89°
2026-05-07 12:36 47.40057 10.09343 29357 ft 444 kts 88°
2026-05-07 12:37 47.40055 10.13915 29618 ft 447 kts 89°
2026-05-07 12:37 47.40051 10.18507 29912 ft 448 kts 89°
2026-05-07 12:37 47.40046 10.23119 30179 ft 450 kts 89°
2026-05-07 12:37 47.40039 10.27690 30381 ft 453 kts 89°
2026-05-07 12:38 47.40034 10.32345 30593 ft 455 kts 89°
2026-05-07 12:38 47.40028 10.37026 30767 ft 458 kts 89°
2026-05-07 12:38 47.40019 10.41733 30954 ft 459 kts 89°
2026-05-07 12:38 47.39981 10.46444 31013 ft 461 kts 94°
2026-05-07 12:39 47.38939 10.55768 31001 ft 460 kts 102°
2026-05-07 12:39 47.37652 10.65040 31003 ft 462 kts 102°
2026-05-07 12:40 47.36369 10.74302 30996 ft 462 kts 102°
2026-05-07 12:40 47.35073 10.83560 30993 ft 460 kts 103°
2026-05-07 12:41 47.33770 10.92787 30986 ft 459 kts 103°
2026-05-07 12:41 47.32460 11.01993 30986 ft 460 kts 103°
2026-05-07 12:42 47.31799 11.06611 31243 ft 460 kts 103°
2026-05-07 12:42 47.31141 11.11221 31549 ft 460 kts 103°
2026-05-07 12:42 47.30480 11.15833 31826 ft 460 kts 103°
2026-05-07 12:42 47.29819 11.20449 32087 ft 461 kts 103°
2026-05-07 12:43 47.29125 11.25058 32337 ft 460 kts 109°
2026-05-07 12:43 47.27927 11.29398 32543 ft 458 kts 120°
2026-05-07 12:43 47.26489 11.33587 32761 ft 459 kts 120°
2026-05-07 12:43 47.25035 11.37774 33010 ft 460 kts 120°
2026-05-07 12:44 47.23570 11.41959 33244 ft 460 kts 121°
2026-05-07 12:44 47.22097 11.46146 33469 ft 462 kts 121°
2026-05-07 12:44 47.20627 11.50350 33701 ft 463 kts 120°
2026-05-07 12:44 47.19188 11.54595 33970 ft 464 kts 120°
2026-05-07 12:45 47.17779 11.58870 34157 ft 465 kts 119°
2026-05-07 12:45 47.16387 11.63170 34349 ft 466 kts 119°
2026-05-07 12:45 47.14996 11.67465 34554 ft 465 kts 120°
2026-05-07 12:45 47.13597 11.71749 34776 ft 465 kts 120°
2026-05-07 12:46 47.12186 11.76022 34937 ft 466 kts 120°
2026-05-07 12:46 47.10770 11.80272 34990 ft 461 kts 120°
2026-05-07 12:46 47.07949 11.88676 34974 ft 458 kts 120°
2026-05-07 12:47 47.05119 11.97042 34981 ft 457 kts 120°
2026-05-07 12:47 47.02300 12.05400 34977 ft 457 kts 120°
2026-05-07 12:48 46.99497 12.13694 34984 ft 457 kts 120°
2026-05-07 12:48 46.96669 12.22038 35009 ft 457 kts 120°
2026-05-07 12:49 46.93830 12.30363 35008 ft 456 kts 121°
2026-05-07 12:49 46.91447 12.37323 34986 ft 457 kts 121°
2026-05-07 12:50 46.88590 12.45668 35130 ft 461 kts 121°
2026-05-07 12:50 46.87148 12.49871 35251 ft 464 kts 121°
2026-05-07 12:50 46.85695 12.54087 35395 ft 465 kts 121°
2026-05-07 12:51 46.84239 12.58304 35557 ft 465 kts 121°
2026-05-07 12:51 46.82781 12.62519 35737 ft 465 kts 121°
2026-05-07 12:51 46.81321 12.66738 35946 ft 465 kts 121°
2026-05-07 12:51 46.79864 12.70956 36128 ft 465 kts 121°
2026-05-07 12:52 46.78406 12.75174 36275 ft 466 kts 121°
2026-05-07 12:52 46.76947 12.79387 36420 ft 465 kts 122°
2026-05-07 12:52 46.75482 12.83600 36587 ft 465 kts 121°
2026-05-07 12:52 46.74018 12.87806 36763 ft 466 kts 121°
2026-05-07 12:53 46.72550 12.92012 36930 ft 465 kts 122°
2026-05-07 12:53 46.71100 12.96156 36989 ft 466 kts 122°
2026-05-07 12:53 46.68135 13.04621 36985 ft 466 kts 122°
2026-05-07 12:54 46.65209 13.12953 36978 ft 465 kts 122°
2026-05-07 12:54 46.62253 13.21311 36994 ft 464 kts 122°
2026-05-07 12:55 46.59287 13.29671 36989 ft 466 kts 122°
2026-05-07 12:55 46.56256 13.38006 36980 ft 463 kts 128°
2026-05-07 12:56 46.52494 13.45526 36972 ft 460 kts 132°
2026-05-07 12:56 46.48689 13.52987 36997 ft 460 kts 132°
2026-05-07 12:57 46.44879 13.60440 37006 ft 460 kts 132°
2026-05-07 12:57 46.41066 13.67874 37001 ft 459 kts 132°
2026-05-07 12:58 46.37253 13.75293 37012 ft 459 kts 132°
2026-05-07 12:58 46.33440 13.82692 36980 ft 458 kts 133°
2026-05-07 12:59 46.29620 13.90074 36988 ft 458 kts 133°
2026-05-07 12:59 46.25797 13.97436 37006 ft 458 kts 133°
2026-05-07 13:00 46.21975 14.04783 37008 ft 457 kts 133°
2026-05-07 13:00 46.18158 14.12126 36987 ft 457 kts 133°
2026-05-07 13:01 46.14336 14.19445 36995 ft 457 kts 133°
2026-05-07 13:01 46.10514 14.26747 36989 ft 456 kts 133°
2026-05-07 13:02 46.06687 14.34041 36988 ft 456 kts 133°
2026-05-07 13:02 46.02851 14.41311 36945 ft 456 kts 133°
2026-05-07 13:03 45.98996 14.48582 36954 ft 458 kts 133°
2026-05-07 13:03 45.95154 14.55842 36960 ft 461 kts 133°
2026-05-07 13:04 45.91269 14.63178 36962 ft 462 kts 133°
2026-05-07 13:04 45.87366 14.70506 36968 ft 462 kts 133°
2026-05-07 13:05 45.83462 14.77842 36965 ft 462 kts 133°
2026-05-07 13:05 45.79558 14.85151 36980 ft 462 kts 134°
2026-05-07 13:06 45.75647 14.92440 36985 ft 461 kts 134°
2026-05-07 13:06 45.71729 14.99713 36992 ft 461 kts 134°
2026-05-07 13:07 45.67815 15.06970 36965 ft 460 kts 134°
2026-05-07 13:07 45.63907 15.14202 36987 ft 459 kts 134°
2026-05-07 13:08 45.60002 15.21422 36990 ft 459 kts 134°
2026-05-07 13:08 45.56089 15.28629 36990 ft 459 kts 134°
2026-05-07 13:09 45.52174 15.35817 36971 ft 459 kts 134°
2026-05-07 13:09 45.48251 15.42996 36977 ft 459 kts 134°
2026-05-07 13:10 45.44320 15.50176 36973 ft 460 kts 134°
2026-05-07 13:10 45.40386 15.57355 36977 ft 460 kts 134°
2026-05-07 13:11 45.36441 15.64525 36981 ft 460 kts 134°
2026-05-07 13:11 45.32490 15.71683 36972 ft 461 kts 134°
2026-05-07 13:12 45.28530 15.78844 36991 ft 461 kts 134°
2026-05-07 13:12 45.24568 15.85994 36981 ft 461 kts 134°
2026-05-07 13:13 45.20618 15.93094 36992 ft 462 kts 134°
2026-05-07 13:13 45.16630 16.00239 36974 ft 462 kts 134°
2026-05-07 13:14 45.12639 16.07377 37008 ft 462 kts 134°
2026-05-07 13:14 45.08648 16.14521 37018 ft 463 kts 134°
2026-05-07 13:15 45.04651 16.21648 37027 ft 462 kts 135°
2026-05-07 13:15 45.00650 16.28749 37009 ft 462 kts 134°
2026-05-07 13:16 44.96640 16.35833 37002 ft 462 kts 134°
2026-05-07 13:16 44.92623 16.42908 37017 ft 462 kts 134°
2026-05-07 13:17 44.88598 16.49972 37031 ft 462 kts 134°
2026-05-07 13:17 44.84553 16.57035 37008 ft 463 kts 134°
2026-05-07 13:18 44.80522 16.64078 37037 ft 461 kts 134°
2026-05-07 13:18 44.76499 16.71089 37045 ft 460 kts 134°
2026-05-07 13:19 44.72479 16.78090 37048 ft 460 kts 134°
2026-05-07 13:19 44.68450 16.85069 37033 ft 460 kts 134°
2026-05-07 13:20 44.64409 16.92039 37017 ft 460 kts 134°
2026-05-07 13:20 44.60364 16.99016 37036 ft 461 kts 134°
2026-05-07 13:21 44.56342 17.05936 37048 ft 461 kts 134°
2026-05-07 13:21 44.52292 17.12887 37043 ft 460 kts 134°
2026-05-07 13:22 44.48236 17.19825 37034 ft 460 kts 134°
2026-05-07 13:22 44.44173 17.26760 37045 ft 461 kts 134°
2026-05-07 13:23 44.40103 17.33694 37045 ft 461 kts 134°
2026-05-07 13:23 44.36028 17.40629 37051 ft 461 kts 134°
2026-05-07 13:24 44.31950 17.47539 37041 ft 461 kts 134°
2026-05-07 13:24 44.27866 17.54440 37052 ft 461 kts 134°
2026-05-07 13:25 44.23788 17.61336 37059 ft 461 kts 134°
2026-05-07 13:25 44.19704 17.68214 37055 ft 460 kts 134°
2026-05-07 13:26 44.15611 17.75076 37020 ft 460 kts 134°
2026-05-07 13:26 44.11517 17.81937 37030 ft 461 kts 134°
2026-05-07 13:27 44.07419 17.88801 37039 ft 462 kts 134°
2026-05-07 13:27 44.03310 17.95658 37049 ft 462 kts 134°
2026-05-07 13:28 43.99194 18.02499 37044 ft 461 kts 134°
2026-05-07 13:28 43.95073 18.09322 37060 ft 461 kts 134°
2026-05-07 13:29 43.90955 18.16139 37046 ft 461 kts 134°
2026-05-07 13:29 43.86833 18.22957 37043 ft 461 kts 134°
2026-05-07 13:30 43.82731 18.29718 37042 ft 462 kts 134°
2026-05-07 13:30 43.78588 18.36531 37049 ft 463 kts 134°
2026-05-07 13:31 43.74436 18.43335 37055 ft 463 kts 134°
2026-05-07 13:31 43.70278 18.50129 37056 ft 463 kts 134°
2026-05-07 13:32 43.66119 18.56918 37042 ft 462 kts 134°
2026-05-07 13:32 43.61959 18.63704 37038 ft 463 kts 134°
2026-05-07 13:33 43.57784 18.70486 37048 ft 464 kts 135°
2026-05-07 13:33 43.53600 18.77268 37046 ft 464 kts 135°
2026-05-07 13:34 43.47317 18.87414 37043 ft 464 kts 135°
2026-05-07 13:35 43.43123 18.94167 37037 ft 464 kts 135°
2026-05-07 13:35 43.38926 19.00917 37047 ft 465 kts 135°
2026-05-07 13:36 43.35436 19.06534 37055 ft 465 kts 135°
2026-05-07 13:36 43.31229 19.13276 37047 ft 464 kts 135°
2026-05-07 13:37 43.27022 19.19989 37049 ft 464 kts 135°
2026-05-07 13:37 43.22811 19.26694 37047 ft 464 kts 135°
2026-05-07 13:38 43.18593 19.33400 37046 ft 464 kts 135°
2026-05-07 13:38 43.14374 19.40097 37060 ft 465 kts 135°
2026-05-07 13:39 43.10147 19.46787 37049 ft 465 kts 135°
2026-05-07 13:39 43.05913 19.53473 37061 ft 465 kts 135°
2026-05-07 13:40 43.01676 19.60133 37064 ft 464 kts 135°
2026-05-07 13:40 42.97435 19.66794 37063 ft 465 kts 135°
2026-05-07 13:41 42.93195 19.73449 37064 ft 464 kts 135°
2026-05-07 13:41 42.88972 19.80047 37062 ft 465 kts 135°
2026-05-07 13:42 42.84721 19.86678 37076 ft 464 kts 135°
2026-05-07 13:42 42.80472 19.93301 37084 ft 464 kts 135°
2026-05-07 13:43 42.76220 19.99912 37085 ft 464 kts 135°
2026-05-07 13:43 42.72010 20.06551 37092 ft 464 kts 134°
2026-05-07 13:44 42.67921 20.13350 37094 ft 465 kts 133°
2026-05-07 13:44 42.63864 20.20162 37090 ft 463 kts 133°
2026-05-07 13:45 42.59779 20.26923 37103 ft 463 kts 133°
2026-05-07 13:45 42.55672 20.33647 37088 ft 463 kts 134°
2026-05-07 13:46 42.51554 20.40361 37108 ft 463 kts 134°
2026-05-07 13:46 42.47436 20.47076 37107 ft 463 kts 134°
2026-05-07 13:47 42.43327 20.53786 37107 ft 463 kts 134°
2026-05-07 13:47 42.39213 20.60473 37120 ft 462 kts 134°
2026-05-07 13:48 42.35098 20.67155 37126 ft 462 kts 134°
2026-05-07 13:48 42.30981 20.73832 37118 ft 462 kts 134°
2026-05-07 13:49 42.26849 20.80501 37114 ft 463 kts 134°
2026-05-07 13:49 42.22705 20.87172 37114 ft 464 kts 134°
2026-05-07 13:50 42.18592 20.93797 37118 ft 464 kts 134°
2026-05-07 13:50 42.14446 21.00452 37118 ft 464 kts 134°
2026-05-07 13:51 42.10178 21.06936 37100 ft 459 kts 141°
2026-05-07 13:51 42.05520 21.12834 37118 ft 460 kts 141°
2026-05-07 13:52 42.00861 21.18743 37103 ft 460 kts 141°
2026-05-07 13:52 41.96201 21.24651 37106 ft 461 kts 141°
2026-05-07 13:53 41.91532 21.30557 37112 ft 461 kts 141°
2026-05-07 13:53 41.86861 21.36455 37116 ft 461 kts 141°
2026-05-07 13:54 41.82181 21.42355 37122 ft 462 kts 141°
2026-05-07 13:54 41.77495 21.48239 37125 ft 462 kts 141°
2026-05-07 13:55 41.72796 21.54116 37113 ft 462 kts 141°
2026-05-07 13:55 41.68101 21.59986 37126 ft 462 kts 141°
2026-05-07 13:56 41.63400 21.65864 37129 ft 463 kts 141°
2026-05-07 13:56 41.58689 21.71729 37129 ft 463 kts 141°
2026-05-07 13:57 41.53975 21.77600 37135 ft 463 kts 141°
2026-05-07 13:57 41.49257 21.83451 37122 ft 463 kts 141°
2026-05-07 13:58 41.44534 21.89285 37132 ft 463 kts 141°
2026-05-07 13:58 41.39805 21.95115 37136 ft 463 kts 141°
2026-05-07 13:59 41.35108 22.00901 37141 ft 463 kts 141°
2026-05-07 13:59 41.30378 22.06734 37145 ft 463 kts 141°
2026-05-07 14:00 41.25644 22.12555 37143 ft 464 kts 141°
2026-05-07 14:00 41.20906 22.18365 37137 ft 463 kts 141°
2026-05-07 14:01 41.16161 22.24152 37146 ft 463 kts 142°
2026-05-07 14:01 41.11260 22.29661 37149 ft 461 kts 145°
2026-05-07 14:02 41.06232 22.34920 37151 ft 460 kts 146°
2026-05-07 14:02 41.01210 22.40182 37153 ft 460 kts 146°
2026-05-07 14:03 40.96228 22.45512 37136 ft 461 kts 145°
2026-05-07 14:03 40.91250 22.50863 37130 ft 461 kts 145°
2026-05-07 14:04 40.86260 22.56200 37136 ft 462 kts 145°
2026-05-07 14:04 40.81260 22.61522 37136 ft 462 kts 145°
2026-05-07 14:05 40.76257 22.66838 37137 ft 462 kts 145°
2026-05-07 14:05 40.71245 22.72145 37113 ft 462 kts 145°
2026-05-07 14:06 40.66222 22.77448 37109 ft 463 kts 145°
2026-05-07 14:06 40.61197 22.82762 37102 ft 464 kts 145°
2026-05-07 14:07 40.56194 22.88041 37110 ft 464 kts 145°
2026-05-07 14:07 40.51120 22.93389 37115 ft 464 kts 145°
2026-05-07 14:08 40.46123 22.98680 37112 ft 466 kts 142°
2026-05-07 14:08 40.41579 23.04803 37117 ft 469 kts 137°
2026-05-07 14:09 40.37090 23.11008 37125 ft 469 kts 136°
2026-05-07 14:09 40.32596 23.17202 37127 ft 469 kts 137°
2026-05-07 14:10 40.28102 23.23391 37129 ft 469 kts 137°
2026-05-07 14:10 40.23602 23.29570 37137 ft 469 kts 137°
2026-05-07 14:11 40.19105 23.35743 37133 ft 469 kts 137°
2026-05-07 14:11 40.14599 23.41921 37104 ft 469 kts 137°
2026-05-07 14:12 40.10082 23.48089 37114 ft 470 kts 136°
2026-05-07 14:12 40.05557 23.54265 37113 ft 471 kts 136°
2026-05-07 14:13 40.01027 23.60443 37116 ft 471 kts 137°
2026-05-07 14:13 39.96488 23.66609 37123 ft 471 kts 137°
2026-05-07 14:14 39.91939 23.72765 37127 ft 471 kts 137°
2026-05-07 14:14 39.87388 23.78916 37113 ft 472 kts 136°
2026-05-07 14:15 39.82828 23.85070 37116 ft 473 kts 136°
2026-05-07 14:15 39.78261 23.91232 37117 ft 473 kts 136°
2026-05-07 14:16 39.73684 23.97385 37120 ft 473 kts 137°
2026-05-07 14:16 39.69105 24.03530 37122 ft 473 kts 137°
2026-05-07 14:17 39.64525 24.09669 37119 ft 473 kts 137°
2026-05-07 14:17 39.59938 24.15803 37108 ft 474 kts 137°
2026-05-07 14:18 39.55337 24.21933 37111 ft 475 kts 137°
2026-05-07 14:18 39.50726 24.28069 37120 ft 476 kts 137°
2026-05-07 14:19 39.46105 24.34206 37132 ft 476 kts 137°
2026-05-07 14:19 39.41474 24.40339 37131 ft 476 kts 137°
2026-05-07 14:20 39.36837 24.46459 37123 ft 477 kts 137°
2026-05-07 14:20 39.32203 24.52589 37132 ft 477 kts 137°
2026-05-07 14:21 39.27568 24.58704 37106 ft 477 kts 137°
2026-05-07 14:21 39.22912 24.64820 37116 ft 478 kts 137°
2026-05-07 14:22 39.18248 24.70944 37120 ft 479 kts 137°
2026-05-07 14:22 39.13608 24.77026 37122 ft 479 kts 137°
2026-05-07 14:23 39.09685 24.82156 37128 ft 480 kts 137°
2026-05-07 14:23 39.04234 24.89257 37131 ft 480 kts 137°
2026-05-07 14:24 39.00298 24.94370 37113 ft 480 kts 137°
2026-05-07 14:24 38.95590 25.00480 37112 ft 482 kts 137°
2026-05-07 14:25 38.90871 25.06608 37122 ft 483 kts 137°
2026-05-07 14:25 38.86148 25.12745 37132 ft 483 kts 137°
2026-05-07 14:26 38.81414 25.18859 37127 ft 483 kts 137°
2026-05-07 14:26 38.76677 25.24963 37127 ft 483 kts 137°
2026-05-07 14:27 38.71936 25.31053 37130 ft 483 kts 137°
2026-05-07 14:27 38.67217 25.37100 37114 ft 484 kts 137°
2026-05-07 14:28 38.62432 25.43239 37114 ft 484 kts 137°
2026-05-07 14:28 38.57700 25.49293 37118 ft 485 kts 137°
2026-05-07 14:29 38.52930 25.55390 37128 ft 485 kts 137°
2026-05-07 14:29 38.48153 25.61479 37130 ft 485 kts 137°
2026-05-07 14:30 38.43365 25.67549 37137 ft 485 kts 137°
2026-05-07 14:30 38.38579 25.73623 37123 ft 486 kts 137°
2026-05-07 14:31 38.33784 25.79702 37124 ft 487 kts 137°
2026-05-07 14:31 38.28973 25.85775 37126 ft 487 kts 138°
2026-05-07 14:32 38.23615 25.90922 37125 ft 480 kts 155°
2026-05-07 14:32 38.17490 25.94097 37127 ft 474 kts 165°
2026-05-07 14:33 38.11270 25.96902 37112 ft 475 kts 165°
2026-05-07 14:33 38.05032 25.99748 37115 ft 477 kts 165°
2026-05-07 14:34 37.98778 26.02605 37120 ft 478 kts 165°
2026-05-07 14:34 37.92514 26.05451 37126 ft 479 kts 165°
2026-05-07 14:35 37.86236 26.08288 37107 ft 480 kts 165°
2026-05-07 14:35 37.79928 26.11140 37113 ft 482 kts 165°
2026-05-07 14:36 37.73600 26.13990 37118 ft 484 kts 166°
2026-05-07 14:36 37.67254 26.16841 37123 ft 484 kts 165°
2026-05-07 14:37 37.60899 26.19700 37127 ft 485 kts 166°
2026-05-07 14:37 37.51351 26.23972 37117 ft 486 kts 166°
2026-05-07 14:38 37.48163 26.25395 36845 ft 486 kts 165°
2026-05-07 14:38 37.44984 26.26823 36571 ft 484 kts 165°
2026-05-07 14:38 37.41807 26.28250 35711 ft 487 kts 165°
2026-05-07 14:38 37.38612 26.29678 34845 ft 489 kts 165°
2026-05-07 14:39 37.35389 26.31109 33876 ft 493 kts 164°
2026-05-07 14:39 37.32150 26.32546 32989 ft 492 kts 164°
2026-05-07 14:39 37.28949 26.33968 32440 ft 485 kts 164°
2026-05-07 14:39 37.25780 26.35378 31790 ft 481 kts 164°
2026-05-07 14:40 37.22637 26.36777 31182 ft 477 kts 164°
2026-05-07 14:40 37.19524 26.38160 30628 ft 472 kts 164°
2026-05-07 14:40 37.16439 26.39528 30009 ft 469 kts 165°
2026-05-07 14:40 37.13379 26.40889 29451 ft 464 kts 164°
2026-05-07 14:41 37.10352 26.42237 28897 ft 460 kts 164°
2026-05-07 14:41 37.07391 26.43556 28356 ft 456 kts 164°
2026-05-07 14:41 37.04377 26.44894 27810 ft 451 kts 164°
2026-05-07 14:41 37.01473 26.46177 27284 ft 447 kts 164°
2026-05-07 14:42 36.98517 26.47481 26765 ft 442 kts 164°
2026-05-07 14:42 36.95669 26.48736 26266 ft 438 kts 164°
2026-05-07 14:42 36.92879 26.50244 25769 ft 437 kts 153°
2026-05-07 14:42 36.90377 26.52396 25289 ft 437 kts 141°
2026-05-07 14:43 36.88285 26.55127 24808 ft 435 kts 128°
2026-05-07 14:43 36.86679 26.58311 24319 ft 433 kts 116°
2026-05-07 14:43 36.85478 26.61744 23828 ft 430 kts 113°
2026-05-07 14:43 36.84309 26.65168 23277 ft 427 kts 113°
2026-05-07 14:44 36.83145 26.68559 22798 ft 423 kts 113°
2026-05-07 14:44 36.81990 26.71916 22317 ft 419 kts 113°
2026-05-07 14:44 36.80843 26.75244 21834 ft 416 kts 113°
2026-05-07 14:44 36.79705 26.78540 21357 ft 412 kts 113°
2026-05-07 14:45 36.78575 26.81815 20865 ft 410 kts 113°
2026-05-07 14:45 36.77452 26.85070 20382 ft 407 kts 113°
2026-05-07 14:45 36.76335 26.88306 19897 ft 405 kts 113°
2026-05-07 14:45 36.75220 26.91525 19406 ft 404 kts 113°
2026-05-07 14:46 36.74108 26.94730 18923 ft 402 kts 113°
2026-05-07 14:46 36.73001 26.97923 18437 ft 401 kts 113°
2026-05-07 14:46 36.71897 27.01110 17917 ft 399 kts 113°
2026-05-07 14:46 36.70800 27.04269 17438 ft 396 kts 113°
2026-05-07 14:47 36.69709 27.07400 16970 ft 393 kts 113°
2026-05-07 14:47 36.68627 27.10507 16504 ft 390 kts 112°
2026-05-07 14:47 36.67551 27.13597 16042 ft 387 kts 112°
2026-05-07 14:47 36.66481 27.16658 15584 ft 385 kts 112°
2026-05-07 14:48 36.65413 27.19699 15214 ft 380 kts 112°
2026-05-07 14:48 36.64370 27.22666 15113 ft 367 kts 112°
2026-05-07 14:48 36.63357 27.25556 15150 ft 363 kts 112°
2026-05-07 14:48 36.62352 27.28430 15145 ft 362 kts 112°
2026-05-07 14:49 36.61345 27.31300 15138 ft 361 kts 112°
2026-05-07 14:49 36.60337 27.34165 14951 ft 362 kts 112°
2026-05-07 14:49 36.59311 27.37078 14144 ft 373 kts 112°
2026-05-07 14:49 36.58266 27.40040 13587 ft 373 kts 112°
2026-05-07 14:50 36.57228 27.42985 13107 ft 370 kts 112°
2026-05-07 14:50 36.56197 27.45900 12632 ft 366 kts 112°
2026-05-07 14:50 36.55214 27.48800 12249 ft 360 kts 106°
2026-05-07 14:50 36.54753 27.51787 12000 ft 347 kts 94°
2026-05-07 14:51 36.54501 27.54730 11749 ft 338 kts 94°
2026-05-07 14:51 36.54260 27.57603 11496 ft 331 kts 94°
2026-05-07 14:51 36.54025 27.60435 11257 ft 328 kts 94°
2026-05-07 14:51 36.53792 27.63252 11015 ft 326 kts 94°
2026-05-07 14:52 36.53559 27.66048 10780 ft 324 kts 94°
2026-05-07 14:52 36.53325 27.68830 10539 ft 323 kts 94°
2026-05-07 14:52 36.53094 27.71596 10314 ft 321 kts 94°
2026-05-07 14:52 36.52869 27.74307 10025 ft 317 kts 94°
2026-05-07 14:53 36.52629 27.76972 9635 ft 303 kts 94°
2026-05-07 14:53 36.52379 27.79522 9251 ft 292 kts 95°
2026-05-07 14:53 36.52128 27.82009 8872 ft 288 kts 95°
2026-05-07 14:53 36.51879 27.84467 8481 ft 285 kts 95°
2026-05-07 14:54 36.51634 27.86896 8011 ft 281 kts 95°
2026-05-07 14:54 36.51397 27.89260 7542 ft 271 kts 95°
2026-05-07 14:54 36.51173 27.91546 7078 ft 262 kts 95°
2026-05-07 14:54 36.50956 27.93755 6628 ft 253 kts 95°
2026-05-07 14:55 36.50742 27.95896 6152 ft 246 kts 95°
2026-05-07 14:55 36.50533 27.97980 5630 ft 241 kts 95°
2026-05-07 14:55 36.50325 28.00042 5066 ft 240 kts 95°
2026-05-07 14:55 36.50120 28.02089 4486 ft 238 kts 96°
2026-05-07 14:56 36.49917 28.04130 3909 ft 238 kts 96°
2026-05-07 14:56 36.49713 28.06172 3348 ft 239 kts 96°
2026-05-07 14:56 36.49508 28.08226 2766 ft 240 kts 97°
2026-05-07 14:56 36.49299 28.10296 2203 ft 242 kts 97°
2026-05-07 14:57 36.49095 28.12331 2013 ft 233 kts 97°
2026-05-07 14:57 36.48895 28.14309 1999 ft 226 kts 97°
2026-05-07 14:57 36.48703 28.16178 1990 ft 212 kts 99°
2026-05-07 14:57 36.48280 28.17892 2001 ft 205 kts 119°
2026-05-07 14:58 36.47390 28.19219 2058 ft 199 kts 148°
2026-05-07 14:58 36.46155 28.19886 2103 ft 191 kts 171°
2026-05-07 14:58 36.44880 28.19968 2124 ft 174 kts 191°
2026-05-07 14:58 36.43837 28.19431 1912 ft 157 kts 224°
2026-05-07 14:59 36.43253 28.18358 1625 ft 147 kts 251°
2026-05-07 14:59 36.42971 28.17164 1343 ft 141 kts 256°
2026-05-07 14:59 36.42689 28.16025 1151 ft 138 kts 253°
2026-05-07 14:59 36.42373 28.14917 880 ft 136 kts 251°
2026-05-07 15:00 36.42062 28.13832 673 ft 133 kts 253°
2026-05-07 15:00 36.41751 28.12759 503 ft 131 kts 249°
2026-05-07 15:00 36.41437 28.11696 326 ft 131 kts 250°
2026-05-07 15:00 36.41128 28.10631 119 ft 131 kts 251°
2026-05-07 15:01 36.40830 28.09615 30 ft 112 kts 250°
2026-05-07 15:01 36.40626 28.08918 28 ft 61 kts 250°
2026-05-07 15:01 36.40534 28.08636 28 ft 12 kts 231°
2026-05-07 15:01 36.40486 28.08636 27 ft 1 kts 143°
2026-05-07 15:02 36.40484 28.08638 28 ft 0 kts 140°
2026-05-07 15:02 36.40475 28.08649 28 ft 3 kts 129°
2026-05-07 15:02 36.40462 28.08686 28 ft 6 kts 112°
2026-05-07 15:02 36.40439 28.08746 28 ft 9 kts 119°
2026-05-07 15:03 36.40409 28.08803 28 ft 8 kts 116°
2026-05-07 15:03 36.40397 28.08882 28 ft 11 kts 97°
2026-05-07 15:03 36.40395 28.08977 28 ft 11 kts 78°
2026-05-07 15:03 36.40416 28.09062 28 ft 10 kts 70°
2026-05-07 15:04 36.40415 28.09113 28 ft 5 kts 139°
2026-05-07 15:04 36.40388 28.09127 28 ft 4 kts 160°
2026-05-07 15:04 36.40367 28.09137 28 ft 1 kts 160°